Wind_Speed
22 23 22 19 19 19 17 19 22 19 15 14 15 14 12 12 15 17 19 21 21 20 19 19 19 18 18 17 17 17 17 16 15 15 16 16 16 16 15 14 13 12
23 23 21 20 20 20 17 17 19 17 15 14 14 13 13 13 15 17 20 21 21 20 19 18 17 16 16 16 16 16 16 15 14 15 16 15 15 15 14 13 11 11
23 24 22 20 20 19 16 15 15 14 13 14 13 14 15 16 19 19 20 20 20 20 19 18 17 16 16 15 15 14 15 15 14 14 14 13 13 12 12 11 11 11
18 19 19 17 17 17 16 14 12 12 12 13 14 15 16 18 20 21 20 20 19 19 18 18 17 15 15 14 14 14 15 15 14 13 13 12 12 12 11 11 10 10
12 11 11 12 14 15 14 11 10 11 13 15 15 16 17 18 19 20 20 19 19 18 17 17 16 15 15 14 14 13 13 13 12 12 12 12 12 11 11 11 11 11
12 8 5 5 8 9 8 8 8 10 12 15 17 18 17 17 17 18 19 19 18 17 17 17 16 15 15 15 14 14 14 14 13 13 13 12 12 12 11 12 12 12
13 11 7 2 1 2 5 7 8 10 13 16 18 19 18 18 18 18 18 18 17 16 17 17 16 16 15 15 15 15 14 14 13 13 13 12 12 12 12 12 12 12
10 12 10 5 1 3 8 8 9 11 15 17 18 19 19 18 17 17 17 17 16 17 17 17 16 15 14 15 16 15 13 12 12 12 12 12 12 12 11 11 12 12
6 8 8 6 3 2 7 8 9 12 16 18 18 19 19 17 17 17 17 17 17 17 17 16 15 14 14 15 15 14 12 10 10 11 12 12 12 11 11 11 12 12
4 5 6 4 3 1 4 7 9 11 15 17 18 18 18 17 17 17 17 17 18 17 17 16 15 15 15 15 14 12 11 9 8 10 11 12 11 10 10 11 11 11
4 4 5 4 3 2 4 6 8 10 14 17 18 18 17 15 15 15 16 17 18 16 16 15 15 15 15 15 13 11 10 9 9 11 11 11 10 10 10 10 10 11
2 3 3 3 3 3 4 6 7 10 14 18 18 17 15 13 13 14 15 16 15 15 14 14 13 13 13 12 11 10 10 10 11 12 12 10 10 10 10 10 11 11
1 1 3 3 2 3 4 5 6 9 14 17 18 16 14 14 15 15 14 14 13 12 11 11 10 10 10 10 9 10 11 12 13 13 12 11 10 10 10 11 11 11
0 0 1 3 3 3 4 5 6 9 13 16 17 16 15 16 17 16 15 14 13 11 10 9 9 9 9 9 10 11 13 13 13 13 13 12 11 9 9 11 12 12
2 1 1 1 3 4 4 5 7 10 14 16 17 17 16 16 16 16 16 14 12 11 10 10 10 10 10 11 12 13 14 14 14 13 13 13 11 10 10 11 12 12
5 4 3 2 1 3 4 5 7 10 13 15 16 17 16 15 16 16 15 13 12 11 10 10 11 12 12 13 13 13 14 14 14 13 13 12 10 9 10 11 12 12
9 8 8 7 5 6 5 5 7 7 10 12 13 15 15 15 17 17 15 12 10 9 9 10 13 14 14 13 12 12 13 14 13 13 13 12 10 8 9 11 13 15
14 12 11 10 8 9 7 6 6 6 10 12 13 14 14 16 18 16 13 11 10 9 10 13 14 14 13 12 11 11 12 12 12 13 13 12 10 8 10 13 17 19
21 18 16 12 10 9 7 5 5 6 10 14 14 13 14 16 15 12 10 9 10 11 12 12 13 13 12 11 10 10 10 10 11 12 13 11 9 9 12 17 20 20
25 23 20 17 13 9 6 4 4 5 9 14 15 15 14 13 11 8 8 9 11 12 12 11 12 11 10 10 11 10 10 10 10 12 14 12 10 12 16 19 20 19
26 25 22 20 17 13 7 5 4 3 4 6 11 14 13 13 12 9 9 10 11 11 11 11 11 10 10 10 11 11 11 9 10 13 14 13 12 15 17 18 18 16
26 26 24 21 18 14 10 7 5 3 3 2 3 7 8 11 14 12 9 9 8 8 9 10 10 10 10 9 10 12 12 11 13 16 16 15 15 17 18 18 17 15
25 26 25 21 17 14 11 10 7 5 6 6 4 3 3 6 12 12 9 7 6 7 8 8 8 9 9 9 10 12 11 12 15 18 17 17 18 19 19 19 17 16
24 24 25 22 17 13 11 10 9 8 10 9 6 5 5 3 9 9 7 5 4 5 6 6 7 8 9 10 11 11 12 15 18 20 20 21 22 22 21 19 17 16
23 23 24 23 19 14 10 9 9 9 9 10 7 4 2 3 7 8 7 6 5 6 6 6 7 10 11 11 12 13 15 16 17 18 17 15 15 17 17 16 14 11
22 22 21 21 19 16 11 9 10 11 10 11 11 9 7 9 9 7 6 7 7 8 9 10 11 14 14 14 14 14 14 12 9 9 9 7 8 11 13 13 11 8
Wind_Direction
291 293 294 292 289 287 286 293 297 285 270 272 262 248 242 229 217 205 192 188 190 194 201 204 205 207 207 208 211 215 215 212 209 200 193 193 194 194 196 197 196 192
298 299 294 288 285 286 287 292 293 280 263 261 253 239 229 213 200 192 186 185 187 192 195 198 200 202 206 211 214 215 211 204 203 199 194 195 195 192 193 196 195 191
304 304 300 290 281 278 283 288 285 272 256 250 242 230 219 200 185 180 181 183 186 190 193 195 197 201 209 214 211 210 206 199 197 195 195 197 194 191 194 199 198 190
315 314 312 300 285 280 284 283 273 260 247 239 232 223 211 193 182 179 180 184 187 191 194 196 198 202 209 209 205 207 207 199 192 189 192 196 193 190 194 201 202 192
338 334 327 312 298 290 283 268 254 250 239 228 223 218 206 191 185 185 186 188 190 193 197 200 201 201 203 202 200 203 205 199 194 192 195 196 196 197 198 201 203 199
359 358 353 325 308 297 275 239 226 232 230 223 217 213 205 194 189 190 192 193 194 197 200 201 199 194 194 196 198 198 197 197 198 196 197 198 199 202 203 202 203 203
4 359 357 1 338 253 224 215 213 214 219 221 215 210 204 196 193 194 195 196 198 200 198 196 194 190 188 191 193 192 190 193 196 194 195 196 196 200 202 202 204 204
2 2 359 359 8 174 181 199 218 214 212 213 209 205 201 196 196 196 194 195 196 195 192 190 191 189 185 184 184 183 183 188 194 195 195 194 192 195 197 199 200 201
359 360 357 2 7 187 186 204 224 214 206 205 201 197 196 198 200 197 193 191 189 188 187 186 186 183 179 178 177 178 180 186 194 198 197 195 194 195 196 196 199 201
353 342 335 346 4 255 212 219 222 211 204 202 198 194 194 200 202 196 192 190 185 184 184 182 181 179 176 177 179 181 185 190 197 197 195 194 193 194 195 196 197 200
329 322 315 320 318 264 222 216 216 210 201 198 198 198 200 204 200 195 196 191 183 182 183 180 181 180 177 178 182 186 191 195 194 189 187 186 183 183 188 189 188 191
314 272 254 269 278 243 214 207 207 204 198 197 199 201 204 204 196 195 202 194 182 182 184 182 181 181 180 183 187 192 195 190 182 178 175 173 171 172 176 177 177 181
28 223 224 227 235 226 213 209 205 202 200 199 200 200 202 202 194 194 198 191 181 182 186 185 186 188 190 194 196 197 191 180 172 172 170 166 165 169 173 174 174 176
323 98 217 226 231 232 227 222 215 208 204 202 200 200 201 199 193 190 188 184 183 186 192 198 203 205 203 198 194 190 183 175 172 173 171 169 169 174 177 177 177 176
340 27 34 256 233 234 233 229 222 213 207 203 200 200 201 199 192 186 183 183 187 195 210 220 217 207 197 188 185 184 178 173 174 175 175 175 179 183 184 183 181 180
19 24 29 34 264 264 255 238 231 216 203 201 199 196 198 196 190 185 182 184 194 210 226 221 199 186 182 179 181 182 179 176 177 180 180 181 185 191 190 186 182 177
35 28 23 28 21 345 307 264 251 222 200 203 201 193 193 192 188 184 181 185 203 221 214 189 177 176 175 175 177 181 183 183 184 185 184 183 188 197 194 184 174 164
38 31 22 17 7 348 330 298 271 226 198 203 204 195 191 191 188 183 178 187 205 205 184 173 174 177 176 174 179 183 184 186 189 189 186 185 190 199 190 175 165 160
38 35 29 17 357 338 329 312 283 235 203 203 205 198 190 185 181 177 177 188 194 184 176 175 177 180 182 183 187 190 186 186 192 192 189 187 187 182 171 162 159 159
39 36 32 25 11 351 330 314 293 246 210 200 194 189 184 175 164 161 170 177 178 176 175 177 180 185 189 191 197 199 193 193 199 196 189 181 169 160 158 157 159 161
36 32 30 28 22 10 353 339 320 271 235 203 182 178 177 163 144 144 165 172 174 180 182 182 188 194 194 199 206 203 196 196 196 190 184 175 163 158 158 160 162 162
30 27 26 27 25 19 16 9 350 326 330 329 182 175 176 165 152 150 168 176 171 180 187 189 198 206 205 207 208 200 194 192 188 185 184 179 170 166 166 167 166 161
26 24 24 27 28 29 37 44 44 58 66 59 56 47 65 158 165 163 173 183 171 171 179 184 199 215 219 212 200 193 192 192 190 189 189 184 178 175 174 173 168 159
27 25 25 30 35 37 44 61 70 79 83 80 65 25 27 140 175 176 178 182 174 172 177 181 194 207 214 207 194 187 190 194 195 195 193 189 185 181 177 171 163 154
29 28 28 32 38 39 40 56 70 79 89 94 95 71 43 146 167 174 180 186 196 193 188 189 191 190 191 189 183 182 185 184 184 184 181 173 170 168 164 159 157 155
31 31 33 36 40 41 41 55 74 87 99 103 103 106 118 130 136 149 163 164 168 171 170 175 177 171 169 171 174 182 186 182 175 177 174 159 159 167 167 169 177 186
Height
1513 1514 1514 1515 1516 1517 1518 1520 1521 1521 1521 1520 1519 1518 1518 1517 1517 1517 1518 1519 1521 1524 1527 1529 1532 1535 1537 1539 1541 1542 1543 1545 1546 1547 1547 1549 1550 1551 1553 1554 1554 1556
1512 1512 1512 1513 1514 1515 1516 1517 1518 1519 1520 1520 1519 1518 1517 1516 1517 1517 1518 1519 1521 1523 1526 1529 1531 1534 1536 1537 1539 1541 1542 1544 1545 1545 1547 1547 1549 1550 1551 1552 1553 1555
1510 1510 1510 1510 1510 1512 1513 1514 1515 1516 1518 1518 1518 1517 1516 1515 1516 1517 1518 1519 1521 1523 1525 1528 1530 1532 1534 1536 1538 1539 1541 1542 1543 1544 1546 1547 1548 1549 1550 1551 1553 1554
1508 1508 1508 1508 1508 1509 1511 1511 1512 1514 1516 1517 1518 1517 1515 1514 1515 1516 1518 1519 1521 1523 1525 1527 1529 1531 1533 1535 1536 1538 1540 1541 1542 1543 1545 1546 1547 1548 1549 1550 1552 1553
1507 1506 1506 1506 1506 1507 1508 1509 1510 1512 1514 1516 1517 1516 1514 1514 1515 1516 1517 1519 1521 1523 1525 1527 1528 1530 1531 1533 1535 1537 1539 1540 1541 1542 1543 1545 1546 1547 1548 1549 1550 1551
1506 1505 1504 1504 1504 1505 1506 1506 1508 1510 1512 1515 1515 1515 1514 1514 1515 1516 1517 1519 1520 1522 1524 1526 1528 1529 1531 1532 1534 1536 1537 1539 1540 1541 1543 1544 1545 1546 1547 1548 1549 1550
1506 1505 1503 1502 1502 1503 1504 1505 1506 1507 1510 1512 1513 1514 1515 1515 1515 1516 1516 1518 1520 1522 1524 1525 1527 1528 1530 1532 1533 1535 1536 1538 1540 1541 1542 1543 1544 1545 1546 1547 1548 1549
1505 1505 1504 1502 1502 1502 1504 1504 1505 1506 1507 1509 1511 1513 1514 1514 1515 1515 1516 1517 1519 1521 1523 1525 1526 1528 1530 1531 1533 1534 1536 1538 1539 1540 1541 1542 1543 1544 1545 1546 1547 1548
1504 1505 1504 1503 1503 1503 1503 1504 1505 1506 1508 1510 1511 1512 1513 1514 1514 1514 1515 1516 1518 1520 1522 1524 1526 1528 1530 1531 1533 1534 1536 1538 1539 1540 1541 1542 1543 1544 1545 1545 1546 1547
1503 1503 1503 1503 1503 1503 1503 1504 1504 1506 1508 1510 1511 1511 1512 1512 1513 1514 1515 1516 1517 1519 1521 1524 1526 1527 1529 1531 1533 1535 1536 1537 1538 1539 1540 1541 1542 1543 1544 1545 1546 1547
1502 1502 1502 1503 1503 1503 1503 1504 1504 1505 1507 1508 1510 1510 1511 1512 1513 1514 1516 1517 1517 1519 1521 1523 1525 1527 1529 1531 1533 1534 1535 1536 1537 1538 1539 1540 1541 1542 1543 1544 1545 1546
1502 1502 1502 1503 1503 1503 1503 1503 1503 1504 1505 1507 1508 1509 1510 1511 1512 1514 1517 1518 1518 1519 1522 1523 1525 1527 1528 1530 1532 1533 1534 1535 1536 1537 1538 1539 1540 1541 1542 1543 1545 1546
1502 1501 1501 1502 1502 1502 1502 1503 1503 1503 1504 1505 1507 1508 1509 1510 1511 1513 1516 1518 1519 1520 1522 1523 1524 1526 1528 1529 1531 1532 1533 1534 1535 1536 1537 1538 1539 1540 1542 1543 1544 1545
1501 1501 1500 1501 1501 1501 1502 1502 1503 1503 1504 1505 1506 1507 1508 1509 1510 1512 1514 1517 1519 1520 1521 1523 1524 1525 1527 1528 1530 1531 1532 1533 1534 1535 1536 1538 1539 1540 1541 1542 1544 1545
1500 1500 1500 1500 1500 1500 1501 1501 1502 1503 1503 1504 1505 1506 1507 1508 1510 1512 1514 1516 1518 1519 1521 1522 1523 1524 1526 1527 1529 1530 1532 1533 1534 1535 1536 1538 1539 1540 1541 1542 1543 1544
1500 1500 1500 1500 1499 1500 1500 1500 1501 1502 1503 1503 1504 1505 1506 1508 1510 1512 1514 1516 1517 1519 1520 1521 1522 1524 1525 1527 1528 1530 1532 1533 1534 1535 1536 1537 1538 1539 1540 1541 1542 1544
1501 1501 1501 1500 1500 1500 1500 1500 1501 1502 1504 1504 1503 1504 1506 1507 1509 1511 1513 1515 1517 1519 1519 1520 1522 1524 1525 1527 1529 1530 1532 1533 1534 1535 1536 1537 1538 1539 1540 1541 1542 1543
1502 1502 1501 1501 1500 1500 1500 1500 1501 1502 1504 1504 1504 1505 1506 1507 1509 1510 1512 1514 1516 1518 1519 1521 1523 1524 1526 1528 1529 1531 1532 1533 1534 1535 1536 1537 1538 1538 1539 1540 1541 1543
1502 1502 1502 1502 1501 1501 1501 1501 1501 1502 1503 1504 1504 1505 1506 1507 1509 1511 1512 1514 1516 1518 1520 1522 1523 1525 1527 1528 1530 1531 1532 1533 1534 1535 1536 1537 1537 1538 1538 1540 1541 1543
1504 1503 1503 1502 1502 1502 1502 1502 1502 1503 1503 1503 1504 1505 1506 1508 1510 1512 1514 1515 1517 1519 1520 1522 1524 1526 1527 1529 1530 1531 1532 1533 1534 1535 1536 1537 1537 1538 1539 1540 1542 1543
1505 1504 1504 1503 1503 1503 1503 1503 1504 1504 1504 1504 1504 1505 1507 1508 1510 1513 1515 1517 1518 1519 1521 1523 1525 1526 1528 1529 1530 1531 1532 1533 1534 1535 1536 1537 1537 1538 1539 1540 1542 1543
1507 1506 1505 1504 1504 1504 1504 1504 1505 1505 1505 1506 1506 1507 1509 1510 1511 1514 1517 1518 1519 1520 1522 1523 1525 1527 1528 1529 1530 1531 1532 1533 1534 1535 1535 1536 1537 1538 1539 1540 1542 1543
1509 1508 1507 1506 1505 1505 1506 1506 1506 1506 1507 1508 1509 1510 1511 1512 1513 1515 1517 1519 1519 1521 1522 1524 1525 1527 1528 1529 1529 1530 1531 1533 1534 1534 1535 1535 1536 1537 1538 1540 1541 1542
1511 1510 1509 1507 1507 1507 1507 1507 1508 1508 1508 1509 1510 1511 1513 1514 1515 1517 1519 1519 1520 1521 1522 1524 1526 1527 1529 1530 1530 1530 1531 1532 1533 1534 1534 1534 1534 1535 1537 1539 1540 1541
1514 1513 1512 1510 1509 1509 1509 1509 1509 1510 1510 1510 1511 1512 1514 1515 1516 1518 1519 1520 1521 1522 1523 1524 1526 1528 1529 1530 1530 1530 1531 1532 1533 1534 1534 1534 1534 1535 1537 1539 1540 1541
1516 1515 1514 1513 1512 1512 1512 1512 1512 1512 1512 1512 1513 1513 1514 1515 1517 1518 1520 1521 1522 1523 1523 1525 1526 1527 1529 1530 1531 1531 1532 1533 1534 1534 1535 1536 1537 1538 1539 1540 1540 1540